LEMUR-2-KAREN B (52736 NORAD) Tracking and Keplerian Element Data

This shows tracking and keplerian element data for the satellite.

Feedback or suggestion? Click here.




ElementValue
Catalog52736
NameLEMUR-2-KAREN B
Epoch Orbit712
Epoch Day192.87097914
Epoch Year2022
RAAN307.1053
Inclination97.5106
Eccentricity0.0009198
Argument of Perigee95.6663
Mean Anonmoly264.5617
Mean Motion15.1229412
Decay Rate9.912E-05
L11 52736U 22057E 22192.87097914 .00009912 00000+0 57544-3 0 9998
L22 52736 97.5106 307.1053 0009198 95.6663 264.5617 15.12294120 7122

Live tracking and technical data element details for LEMUR-2-KAREN B (NORAD 52736). LEMUR-2-KAREN B can be tracked NOW for your location showing map with azimuth and elevation plus other details from your city location.

Track the satellite on the map from your city or location and see movement details for azimuth, elevation, latitude, longitude, range, height, and movement on the map or in text.







IsCatalogInMostPopularTable: catalog: 52736, numindb: 3
Update: records affected: 1



GetName: 52736 LEMUR-2-KAREN B

Hit Count: updated at: Sun, 14 Aug 2022 00:59:41 GMT